Location: Ravensburg
(47.7866°N, 9.6124°E)
Time: 20:29:25
(UTC+02:00)

ITAMSAT 1 - Pass Details

Date: 15 March 2026
Orbit: 782 x 793 km, 98.7° (Epoch: 14 April)

Event Time Altitude Azimuth Distance (km) Brightness Sun altitude
Exits shadow 20:23:39 24° 58° (ENE) 1,596 8.9 -20.1°
Drops below altitude 10° 20:27:35 10° 9° (N) 2,356 10.3 -20.7°
Sets 20:30:18 0° 356° (N) 3,292 11.2 -21.1°
